Flag for U.S.A. Weather past 2 weeks in Alpena, Michigan, U.S.A.

Now
62 °F

Mostly cloudy.


Feels Like: 62 °F
Forecast: 48 / 58 °F
Wind: 3 mph from Southwest

Location: Alpena County Regional Airport

Current Time: Sep 21, 2014 at 2:11:05 AM

Latest Report: Sep 21, 2014 at 12:54 AM


Visibility: 9 mi

Pressure: 29.67 "Hg

Humidity: 96%

Dew point: 61 °F

Location of AlpenaLocation

Historic Weather in Alpena — Graph

°F

Alpena temperature yesterday

Maximum temperature yesterday: 71 °F (at 2:54 PM)
Minimum temperature yesterday: 58 °F (at 8:54 AM)
Average temperature yesterday: 63 °F

Past Weeks' High & Low Weather Summary

 TemperatureHumidityPressure
High79 °F (Sep 9, 2:54 PM)100% (Sep 13, 2:54 AM)30.37 "Hg (Sep 13, 2:54 AM)
Low33 °F (Sep 14, 5:54 AM)36% (Sep 7, 3:54 PM)29.39 "Hg (Sep 10, 7:54 PM)
Average55 °F78%30.07 "Hg
* Reported Sep 6 12:54 AM — Sep 21 12:54 AM, Alpena, Weather by CustomWeather, © 2014

Note: Actual official high and low records may vary slightly from our data, if they occured in-between our weather recording intervals... More about our weather records

Advertising

Alpena weather history for previous 24 hours

 ConditionsComfort  
Time TempWeatherWind HumidityBarometerVisibility
12:54 AM
Sep 21
62 °FMostly cloudy.3 mph96%29.67 "Hg9 mi
11:54 PM
Sep 20
63 °FMostly cloudy.No wind93%29.67 "Hg9 mi
10:54 PM63 °FThunderstorms. Mostly cloudy.No wind97%29.68 "Hg9 mi
10:02 PM64 °FLight rain. Fog.9 mph97%29.67 "Hg6 mi
9:54 PM65 °FOvercast.5 mph94%29.66 "Hg10 mi
8:54 PM65 °FPassing clouds.8 mph94%29.65 "Hg9 mi
7:54 PM66 °FLight rain. Partly sunny.7 mph93%29.62 "Hg10 mi
6:54 PM66 °FPartly sunny.7 mph90%29.65 "Hg10 mi
5:54 PM66 °FMostly cloudy.6 mph90%29.66 "Hg10 mi
4:54 PM66 °FLight rain. More clouds than sun.10 mph90%29.66 "Hg9 mi
3:54 PM66 °FRain. Fog.10 mph90%29.68 "Hg4 mi
2:54 PM71 °FPassing clouds.9 mph71%29.67 "Hg10 mi
1:54 PM69 °FSunny.15 mph70%29.69 "Hg10 mi
8:54 AM58 °FThunderstorms. Broken clouds.9 mph87%29.75 "Hg10 mi
7:54 AM61 °FThunderstorms. Mostly cloudy.10 mph72%29.78 "Hg10 mi
6:54 AM61 °FClear.8 mph65%29.78 "Hg10 mi
5:54 AM59 °FPassing clouds.8 mph67%29.79 "Hg10 mi
4:54 AM59 °FMostly cloudy.13 mph67%29.79 "Hg10 mi
3:54 AM59 °FPassing clouds.10 mph67%29.81 "Hg10 mi
2:54 AM59 °FMostly cloudy.12 mph67%29.83 "Hg10 mi
Weather by CustomWeather, © 2014

See weather overviewHow to use our weather pages